Flight Track Log - Related Links

Times and Time Zones

All times are in EDT time to prevent confusion due to time zone crossing. See the ASA310 flight status page for this flight to view local times or setup timezone preferences in your user account.

Time Position Orientation Groundspeed Altitude Reporting Facility
EDT Latitude Longitude Course Direction KTS MPH feet Rate Location/Type
05:55PM 37.6500 -122.3667 338° Northwest 155 178 1,400  Level Northern Cal TRACON
05:56PM 37.6833 -122.3833 338° Northwest 210 242 2,900 2,050 Climbing Northern Cal TRACON
05:57PM 37.7000 -122.4500 288° West 231 266 5,500 2,524 Climbing Northern Cal TRACON
05:58PM 37.6333 -122.4833 202° Southwest 239 275 8,200 2,300 Climbing Northern Cal TRACON
05:59PM 37.5500 -122.4667 171° South 278 320 10,100 1,984 Climbing Northern Cal TRACON
06:00PM 37.4703 -122.4358 163° South 323 372 12,300 2,592 Climbing Oakland Center
06:01PM 37.4147 -122.3408 126° Southeast 339 390 15,500 3,024 Climbing Oakland Center
06:02PM 37.3556 -122.2456 128° Southeast 347 399 18,500 2,634 Climbing Oakland Center
06:03PM 37.2919 -122.1414 127° Southeast 372 428 20,900 2,341 Climbing Oakland Center
06:04PM 37.2258 -122.0328 127° Southeast 390 449 23,300 2,195 Climbing Oakland Center
06:05PM 37.1575 -121.9214 128° Southeast 403 464 25,400 2,146 Climbing Oakland Center
06:06PM 37.0694 -121.7803 128° Southeast 427 491 27,700 2,049 Climbing Oakland Center
06:07PM 36.9939 -121.6636 129° Southeast 433 498 29,600 1,820 Climbing Oakland Center
06:08PM 36.9181 -121.5408 128° Southeast 445 512 31,400 1,854 Climbing Oakland Center
06:09PM 36.8436 -121.4144 126° Southeast 451 519 33,400 1,854 Climbing Oakland Center
06:10PM 36.7600 -121.2847 129° Southeast 447 514 35,200 1,659 Climbing Oakland Center
06:11PM 36.6836 -121.1647 128° Southeast 443 510 36,800 1,512 Climbing Oakland Center
06:12PM 36.6081 -121.0442 128° Southeast 442 509 38,300 1,033 Climbing Oakland Center
06:13PM 36.5328 -120.9256 128° Southeast 438 504 38,900 341 Climbing Oakland Center
06:14PM 36.4578 -120.8078 128° Southeast 434 499 39,000 49 Climbing Oakland Center
06:15PM 36.3836 -120.6892 128° Southeast 434 499 39,000  Level Oakland Center
06:16PM 36.3075 -120.5733 129° Southeast 432 497 39,000  Level Oakland Center
06:17PM 36.2439 -120.4481 122° Southeast 429 494 39,000  Level Oakland Center
06:18PM 36.1711 -120.3281 127° Southeast 435 501 39,000  Level Oakland Center
06:19PM 36.0792 -120.1906 130° Southeast 430 495 39,000  Level Oakland Center
06:20PM 36.0025 -120.0758 130° Southeast 430 495 39,000  Level Oakland Center
06:21PM 35.9267 -119.9608 129° Southeast 431 496 39,000  Level Oakland Center
06:22PM 35.8500 -119.8453 129° Southeast 432 497 39,000  Level Oakland Center
06:23PM 35.7722 -119.7306 130° Southeast 432 497 39,000  Level Oakland Center
06:24PM 35.6953 -119.6153 129° Southeast 433 498 39,000  Level Oakland Center
06:25PM 35.6186 -119.4997 129° Southeast 433 498 39,000  Level Oakland Center
06:26PM 35.5419 -119.3861 130° Southeast 432 497 39,000  Level Oakland Center
06:28PM 35.4664 -119.2731 129° Southeast 428 493 39,000  Level Oakland Center
06:29PM 35.3889 -119.1592 130° Southeast 431 496 39,000  Level Oakland Center
06:30PM 35.3114 -119.0436 129° Southeast 436 502 39,000 -146 Level Oakland Center
06:31PM 35.2178 -118.9075 130° Southeast 436 502 38,700 -1,610 Descending Oakland Center
06:32PM 35.1428 -118.8000 130° Southeast 421 484 35,700 -2,852 Descending Oakland Center
06:33PM 35.0664 -118.6869 130° Southeast 428 493 32,900 -2,803 Descending Oakland Center
06:34PM 34.9878 -118.5731 130° Southeast 435 501 30,000 -2,548 Descending Oakland Center
06:35PM 34.8853 -118.4289 131° Southeast 436 502 26,700 -2,408 Descending Los Angeles Center
06:36PM 34.7981 -118.3033 130° Southeast 410 472 24,100 -1,488 Descending Los Angeles Center
06:37PM 34.7264 -118.2017 131° Southeast 400 460 23,600 -581 Descending Los Angeles Center
06:38PM 34.6542 -118.0983 130° Southeast 404 465 22,900 -581 Descending Los Angeles Center
06:39PM 34.5950 -117.9842 122° Southeast 404 465 22,400 -484 Descending Los Angeles Center
06:40PM 34.5400 -117.8672 120° Southeast 402 463 21,900 -532 Descending Los Angeles Center
06:41PM 34.4756 -117.7269 119° Southeast 401 461 21,300 -823 Descending Los Angeles Center
06:42PM 34.4219 -117.6103 119° Southeast 399 459 20,200 -1,258 Descending Los Angeles Center
06:43PM 34.3739 -117.5031 118° Southeast 387 445 18,700 -1,452 Descending Los Angeles Center
06:44PM 34.3228 -117.3919 119° Southeast 377 434 17,200 -1,306 Descending Los Angeles Center
06:45PM 34.2639 -117.2669 120° Southeast 361 415 16,000 -726 Descending Los Angeles Center
06:46PM 34.2136 -117.1592 119° Southeast 355 409 15,700 -532 Descending Los Angeles Center
06:47PM 34.1653 -117.0556 119° Southeast 353 406 14,900 -677 Descending Los Angeles Center
06:48PM 34.1194 -116.9567 119° Southeast 343 395 14,300 -484 Descending Los Angeles Center
06:50PM 34.0736 -116.8569 119° Southeast 339 390 13,900 -192 Descending Los Angeles Center
06:51PM 34.0286 -116.7633 120° Southeast 327 376 13,900 -768 Level Los Angeles Center
06:52PM 33.9747 -116.6494 120° Southeast 326 375 12,300 -1,548 Descending Los Angeles Center
06:53PM 33.9331 -116.5611 120° Southeast 310 357 10,700 -1,113 Descending Los Angeles Center
06:54PM 33.8964 -116.4806 119° Southeast 284 327 10,000 -581 Descending Los Angeles Center
06:55PM 33.8708 -116.4108 114° Southeast 254 292 9,500 -774 Descending Los Angeles Center
06:56PM 33.8375 -116.3628 130° Southeast 214 246 8,400 -1,210 Descending Los Angeles Center
06:57PM 33.7931 -116.3433 160° South 193 222 7,000 -1,161 Descending Los Angeles Center
06:58PM 33.7472 -116.3647 201° Southwest 177 204 6,000 -1,701 Descending Los Angeles Center
07:00PM 33.7833 -116.4667 293° West 151 174 1,700 -1,777 Descending Southern California TRACON
07:01PM 33.8167 -116.5000 320° Northwest 150 173 700 -1,111 Descending Southern California TRACON
07:03PM 33.8297 -116.5067 284° West  Level Estimated
07:10PM 33.8297 -116.5067 284° West  Level Estimated

Login

Don't have an account? Register now (free) for customized features, flight alerts, and more!